This is the latest recevied weather packets stored in our database for station/object KE5WTH-14. If no packets are shown the sender has not sent any weather packets the latest 10 day(s).
| Time | Temp. | Humidity | Pressure | Rain* | Wind** | Luminosity | Snow |
|---|---|---|---|---|---|---|---|
| 1778188310 | 23.89° C | 46% | 1015.8 hPa | 0 mm | - | 675 W/m² | - |
| 1778188250 | 23.89° C | 48% | 1015.7 hPa | 0 mm | - | 805 W/m² | - |
| 1778188188 | 23.33° C | 48% | 1015.8 hPa | 0 mm | - | 860 W/m² | - |
| 1778188127 | 23.33° C | 47% | 1015.8 hPa | 0 mm | - | 672 W/m² | - |
| 1778188065 | 23.33° C | 47% | 1015.8 hPa | 0 mm | - | 577 W/m² | - |
| 1778188004 | 23.33° C | 49% | 1015.8 hPa | 0 mm | - | 923 W/m² | - |
| 1778187942 | 23.33° C | 47% | 1015.9 hPa | 0 mm | - | 691 W/m² | - |
| 1778187881 | 23.33° C | 48% | 1015.8 hPa | 0 mm | - | 589 W/m² | - |
| 1778187819 | 23.33° C | 47% | 1015.8 hPa | 0 mm | - | 513 W/m² | - |
| 1778187758 | 23.33° C | 48% | 1015.8 hPa | 0 mm | - | 513 W/m² | - |
| 1778187695 | 23.33° C | 49% | 1015.7 hPa | 0 mm | - | 436 W/m² | - |
| 1778187641 | 23.33° C | 46% | 1015.7 hPa | 0 mm | - | 584 W/m² | - |
| 1778187575 | 23.89° C | 47% | 1015.8 hPa | 0 mm | - | 728 W/m² | - |
| 1778187515 | 23.89° C | 47% | 1015.8 hPa | 0 mm | - | 849 W/m² | - |
| 1778187453 | 23.89° C | 47% | 1015.8 hPa | 0 mm | - | 784 W/m² | - |
| 1778187391 | 23.89° C | 48% | 1015.8 hPa | 0 mm | - | 517 W/m² | - |
| 1778187338 | 23.89° C | 47% | 1015.7 hPa | 0 mm | - | 586 W/m² | - |
| 1778187272 | 23.89° C | 49% | 1015.8 hPa | 0 mm | - | 705 W/m² | - |
| 1778187211 | 23.89° C | 49% | 1015.8 hPa | 0 mm | - | 913 W/m² | - |
| 1778187152 | 23.89° C | 47% | 1015.8 hPa | 0 mm | - | 821 W/m² | - |
| 1778187092 | 23.89° C | 49% | 1015.7 hPa | 0 mm | - | 656 W/m² | - |
| 1778187035 | 23.33° C | 48% | 1015.7 hPa | 0 mm | - | 1001 W/m² | - |
| 1778186973 | 23.33° C | 50% | 1015.7 hPa | 0 mm | - | 925 W/m² | - |
| 1778186912 | 23.33° C | 47% | 1015.7 hPa | 0 mm | - | 1088 W/m² | - |
| 1778186853 | 23.33° C | 46% | 1015.7 hPa | 0 mm | - | 1088 W/m² | - |
* Rain latest hour (hover to see other rain measurements)
** Current wind speed in m/s (hover to see current wind gust speed)